Location: Lake Arresoe
(56.0000°N, 12.5000°E)
Time: 05:03:45
(UTC+01:00)

BlueWalker 3 - Visible Passes

Search period start: 07 December 2022 00:00
Search period end: 17 December 2022 00:00
Orbit: 501 x 518 km, 53.2° (Epoch: 06 December)

Date Brightness Start Highest point End Pass type
(mag) Time Alt. Az. Time Alt. Az. Time Alt. Az.
07 Dec 2.7 17:06:31 10° W 17:10:20 51° SSW 17:14:08 10° ESE visible
07 Dec 3.8 18:45:19 10° W 18:48:30 24° SSW 18:49:06 23° SSW visible
08 Dec 2.8 16:48:06 10° W 16:51:55 50° SSW 16:55:43 10° ESE visible
08 Dec 4.0 18:26:55 10° W 18:30:04 23° SSW 18:31:51 17° S visible
09 Dec 2.9 16:29:41 10° W 16:33:30 50° SSW 16:37:17 10° ESE visible
09 Dec 4.2 18:08:33 10° W 18:11:38 22° SSW 18:14:42 10° SSE visible
10 Dec 4.3 17:50:09 10° W 17:53:11 22° SSW 17:56:12 10° SSE visible
11 Dec 4.5 17:31:45 10° W 17:34:44 21° SW 17:37:42 10° SSE visible
12 Dec 4.7 17:13:22 10° W 17:16:17 20° SW 17:19:11 10° SSE visible
13 Dec 4.8 16:54:58 10° W 16:57:50 19° SW 17:00:40 10° SSE visible
14 Dec 4.9 16:36:35 10° W 16:39:22 19° SW 16:42:08 10° S visible
15 Dec 5.0 16:18:11 10° W 16:20:53 18° SW 16:23:35 10° S visible
